Location: McKinley Crossing
(64.8808°N, 149.6453°W)
Time: 17:02:31
(UTC+00:00)

Envisat - Visible Passes

Search period start: 22 January 2021 00:00
Search period end: 01 February 2021 00:00
Orbit: 764 x 766 km, 98.1° (Epoch: 22 January)

Date Brightness Start Highest point End Pass type
(mag) Time Alt. Az. Time Alt. Az. Time Alt. Az.
22 Jan 3.7 02:47:49 10° S 02:52:50 58° WSW 02:57:54 10° NNW visible
22 Jan 5.9 04:29:38 10° WSW 04:32:58 17° W 04:36:19 10° NW visible
22 Jan 5.3 14:44:12 10° NNE 14:48:20 24° E 14:52:27 10° SE visible
22 Jan 3.1 16:23:00 10° NNE 16:28:09 82° ESE 16:33:15 10° SSW visible
22 Jan 3.6 18:02:18 10° NNE 18:06:53 34° NW 18:11:27 10° WSW visible
23 Jan 3.1 02:10:48 10° SSE 02:15:55 90° WSW 02:21:03 10° NNW visible
23 Jan 5.3 03:51:19 10° SW 03:55:36 27° W 03:59:56 10° NNW visible
23 Jan 5.9 14:07:56 10° NE 14:10:56 15° ENE 14:13:56 10° ESE visible
23 Jan 3.8 15:46:11 10° NNE 15:51:11 52° E 15:56:09 10° S visible
23 Jan 3.2 17:25:22 10° NNE 17:30:17 50° WNW 17:35:11 10° SW visible
24 Jan 4.4 03:13:35 10° SSW 03:18:25 42° W 03:23:17 10° NNW visible
24 Jan 6.2 04:56:45 10° W 04:58:52 12° WNW 05:00:59 10° NW visible
24 Jan 4.7 15:09:27 10° NNE 15:14:03 33° E 15:18:38 10° SSE visible
24 Jan 2.9 16:48:27 10° NNE 16:53:34 75° WNW 16:58:39 10° SSW visible
25 Jan 3.5 02:36:18 10° S 02:41:23 67° WSW 02:46:29 10° NNW visible
25 Jan 5.8 04:17:42 10° SW 04:21:23 20° W 04:25:05 10° NW visible
25 Jan 5.5 14:32:55 10° NE 14:36:46 21° E 14:40:37 10° SE visible
25 Jan 3.3 16:11:35 10° NNE 16:16:42 72° ESE 16:21:47 10° SSW visible
25 Jan 3.5 17:50:51 10° NNE 17:55:33 38° NW 18:00:14 10° WSW visible
26 Jan 5.1 03:39:34 10° SSW 03:44:04 31° W 03:48:35 10° NNW visible
26 Jan 6.1 13:56:51 10° NE 13:59:19 13° ENE 14:01:46 10° ESE visible
26 Jan 4.1 15:34:47 10° NNE 15:39:41 45° E 15:44:34 10° S visible
26 Jan 3.1 17:13:55 10° NNE 17:18:55 56° WNW 17:23:53 10° SW visible
27 Jan 4.1 03:02:00 10° S 03:06:55 48° W 03:11:53 10° NNW visible
27 Jan 6.1 04:44:30 10° WSW 04:47:14 14° WNW 04:49:58 10° NW visible
27 Jan 5.0 14:58:05 10° NNE 15:02:31 29° E 15:06:56 10° SSE visible
27 Jan 3.0 16:37:01 10° NNE 16:42:09 85° WNW 16:47:16 10° SSW visible
28 Jan 3.3 02:24:50 10° SSE 02:29:56 76° WSW 02:35:04 10° NNW visible
28 Jan 5.6 04:05:49 10° SW 04:09:48 23° W 04:13:48 10° NNW visible
28 Jan 5.7 14:21:38 10° NE 14:25:12 19° E 14:28:43 10° SE visible
28 Jan 3.5 16:00:10 10° NNE 16:05:15 63° ESE 16:10:18 10° S visible
28 Jan 3.4 17:39:24 10° NNE 17:44:12 43° NW 17:48:59 10° WSW visible
29 Jan 4.8 03:27:53 10° SSW 03:32:32 35° W 03:37:13 10° NNW visible
29 Jan 6.5 05:12:53 10° WNW 05:13:10 10° WNW 05:13:29 10° WNW visible
29 Jan 6.2 13:45:57 10° NE 13:47:40 12° ENE 13:49:24 10° E visible
29 Jan 4.4 15:23:23 10° NNE 15:28:12 39° E 15:32:58 10° SSE visible
29 Jan 3.0 17:02:29 10° NNE 17:07:32 63° WNW 17:12:33 10° SW visible
30 Jan 3.9 02:50:26 10° S 02:55:26 55° WSW 03:00:29 10° NNW visible
30 Jan 6.0 04:32:25 10° WSW 04:35:37 16° W 04:38:49 10° NW visible
30 Jan 5.2 14:46:45 10° NNE 14:50:58 25° E 14:55:10 10° SE visible
30 Jan 3.1 16:25:35 10° NNE 16:30:44 85° ESE 16:35:51 10° SSW visible
31 Jan 5.4 03:54:00 10° SW 03:58:14 26° W 04:02:29 10° NNW visible
31 Jan 5.9 14:10:26 10° NE 14:13:35 16° ENE 14:16:43 10° ESE visible
31 Jan 3.8 15:48:45 10° NNE 15:53:47 54° ESE 15:58:46 10° S visible
31 Jan 3.2 17:27:57 10° NNE 17:32:51 48° NW 17:37:43 10° SW visible
